Location: Eyeline Observatory
(43.2182°N, 78.8632°W)
Time: 04:57:14
(UTC-05:00)

N. Korean satellite - Pass Details

Date: 10 October 2017
Orbit: 461 x 513 km, 97.2° (Epoch: 16 December)

Event Time Altitude Azimuth Distance (km) Brightness Sun altitude
Rises 19:24:59 0° 173° (S) 2,563 10.2 -8.9°
Reaches altitude 10° 19:27:05 10° 176° (S) 1,677 9.3 -9.3°
Maximum altitude 19:30:40 66° 259° (W) 532 7.0 -10.0°
Drops below altitude 10° 19:34:13 10° 342° (NNW) 1,661 9.5 -10.6°
Sets 19:36:17 0° 346° (NNW) 2,536 10.4 -11.0°
